Regional Weather Roundup
Issued by NWS Grand Forks, ND

Home | Current Version | Previous Version | Graphics & Text | Print | Product List | Glossary On
Versions: 1 2 3 4 5 6 7 8 9 10 11 12 13 14 15 16 17 18 19 20 21 22 23 24 25 26 27 28 29 30 31 32 33 34 35 36 37 38 39 40 41 42 43 44 45 46 47 48 49 50
000
ASUS43 KFGF 192110
RWRFGF
PRAIRIE TO PINES  WEATHER ROUNDUP
NATIONAL WEATHER SERVICE EASTERN NORTH DAKOTA/GRAND FORKS ND
400 PM CDT TUE AUG 19 2014

 **SATELLITE DATA USED TO AUGMENT SKY COVER AT AUTOMATED STATIONS**
 *****  WEATHER ACROSS EASTERN NORTH DAKOTA  *****

CITY           SKY/WX    TMP DP  RH WIND       PRES   REMARKS
GRAND FORKS    MOSUNNY   82  64  54 NE3       29.73S
GRAND FRKS AFB PTSUNNY   80  66  61 N5        29.75S
GRAND FRKS NWS   N/A     34 N/A N/A NE6         N/A
DEVILS LAKE    SUNNY     82  61  47 S6        29.73S
FARGO          MOSUNNY   80  65  59 N5        29.74F
WAHPETON ARPT  PTCLDY    79  59  50 NW5       29.76S
$$

 ***** WEATHER ACROSS CENTRAL AND WESTERN NORTH DAKOTA  *****

CITY           SKY/WX    TMP DP  RH WIND       PRES   REMARKS
BISMARCK       SUNNY     87  60  40 S5        29.75F
MINOT          SUNNY     85  55  35 E7        29.72S
JAMESTOWN      MOSUNNY   81  63  54 CALM      29.75F
MINOT AFB      SUNNY     85  53  32 NW3       29.71F
GARRISON         N/A     83  61  47 VRB6      29.74F
WILLISTON      SUNNY     90  51  26 SE10      29.69F
DICKINSON      SUNNY     86  60  41 S9        29.74F
HETTINGER      SUNNY     88  55  32 S9        29.77F
$$

 *****  OTHER AIRPORT OBSERVATIONS IN OUR AREA  *****

CITY           SKY/WX    TMP DP  RH WIND       PRES   REMARKS
WALHALLA       MOCLDY    79  64  61 E6          N/A
GRAFTON AIRPOR FAIR      79  64  61 E9        29.73F
VALLEY CITY AR FAIR      81  64  57 N3        29.76S
CANDO          FAIR      82  59  44 CALM      29.75S
CAVALIER APRT  MOCLDY    79  63  57 SE5       29.73S
GWINNER        PTCLDY    82  63  51 SW5       29.77F
SHEYENNE NWR     N/A     86  65  49 CALM      29.95S
ROLLA            N/A     81  63  54 NE6       29.76S
 ***** THE ABOVE OBSERVATIONS ARE NON NWS ARE NOT QUALITY
       CONTROLLED AND MAY MIS-REPORT RAIN FOR SNOW...
$$

  *****  WEATHER ACROSS NORTHERN MINNESOTA  *****

CITY           SKY/WX    TMP DP  RH WIND       PRES   REMARKS
FLAG ISLAND    SUNNY     70  61  73 CALM      29.77S
WARROAD        SUNNY     70  64  83 NE9       29.78S
ROSEAU         SUNNY     75  64  69 CALM      29.76S
HALLOCK        SUNNY     79  63  57 CALM      29.73F
THF RVR FALLS  PTSUNNY   75  61  60 CALM      29.76S
BAUDETTE       PTSUNNY   76  63  64 NE5       29.77S
WASKISH        CLOUDY    72  64  78 CALM      29.77S
CROOKSTON      SUNNY     79  64  61 NE7       29.75F
$$
  *****  WEATHER ACROSS CENTRAL AND WEST MINNESOTA  *****

CITY           SKY/WX    TMP DP  RH WIND       PRES   REMARKS
FOSSTON        MOSUNNY   79  63  57 CALM      29.77S
BEMIDJI        MOSUNNY   74  61  63 NW7       29.77S
PARK RAPIDS    MOSUNNY   78  59  51 N9        29.75F
ELBOW LAKE     FAIR      78  64  61 N8        29.76F
WADENA         SUNNY     77  61  57 NW10      29.75F
DETROIT LAKES  SUNNY     77  61  57 NW8       29.78S
MOORHEAD       SUNNY     79  66  65 N3        29.76S
FERGUS FALLS   MOSUNNY   81  59  47 NW7       29.75S
MORRIS MN      SUNNY     84  63  48 N9        29.75F
STAPLES        SUNNY     79  61  53 NW8       29.75S
$$
  *****  WEATHER ELSEWHERE ACROSS MINNESOTA  *****

CITY           SKY/WX    TMP DP  RH WIND       PRES   REMARKS
DULUTH         PTSUNNY   69  62  78 N12       29.74S
INTRNTL FALLS  CLOUDY    72  60  66 NE8       29.76F
ELY            CLOUDY    64  59  82 N5        29.76S
CLOQUET        PTSUNNY   70  61  73 N6        29.74S
WHEATON        SUNNY     79  63  57 NW6       29.77F
BRAINERD       MOSUNNY   75  63  66 N10       29.75F
HIBBING        CLOUDY    72  61  68 N8        29.75S
ALEXANDRIA     MOSUNNY   79  61  53 NW8       29.78S
SAINT CLOUD    PTSUNNY   82  63  52 N8        29.73F
MINNEAPOLIS    PTSUNNY   80  61  52 W12       29.73F
$$

  *****  WEATHER ACROSS SOUTH DAKOTA  *****

CITY           SKY/WX    TMP DP  RH WIND       PRES   REMARKS
SIOUX FALLS    MOSUNNY   84  61  45 CALM      29.80F
BROOKINGS      NOT AVBL
WATERTOWN      SUNNY     81  61  50 NW9       29.80F
HURON          MOSUNNY   88  59  37 N3        29.77F
SISSETON         N/A     83  66  56 VRB5      29.75F
ABERDEEN       MOSUNNY   83  61  47 E3        29.77S
MITCHELL       SUNNY     86  62  44 NE3       29.78F
PIERRE         SUNNY     90  58  33 E10G17    29.74F
MOBRIDGE       SUNNY     86  60  41 CALM      29.73F
RAPID CITY     MOSUNNY   81  65  58 NE5       29.79F
$$

  *****  SOME WEATHER IN NEARBY STATES *****

CITY           SKY/WX    TMP DP  RH WIND       PRES   REMARKS
GLASGOW MT     SUNNY     92  49  22 S9        29.63F
GREAT FALLS MT MOSUNNY   86  37  17 W12G18    29.73F
CHEYENNE WY    PTSUNNY   71  48  43 N10       30.01R
SCOTTSBLUFF NE MOSUNNY   92  55  28 NW9       29.81F HX  90
OMAHA NE       MOSUNNY   89  62  40 VRB3      29.79F
DES MOINES IA  MOSUNNY   86  63  45 W9        29.79F
DAVENPORT IA   MOSUNNY   84  64  50 W14       29.75S
CHICAGO IL     PTSUNNY   85  61  44 W17G26    29.69F
EAU CLAIRE WI  PTSUNNY   74  62  66 W10       29.72S
LA CROSSE WI   MOSUNNY   81  62  52 NW10      29.72S
$$

  *****  SOME NATIONAL WEATHER *****

CITY           SKY/WX    TMP DP  RH WIND       PRES   REMARKS
LA GUARDIA NY  PTSUNNY   77  61  57 SE8       29.88F
RALEIGH NC     MOSUNNY   86  69  56 VRB3      29.84R HX  90
ATLANTA GA     MOSUNNY   85  74  69 W7        29.92F HX  92
NEW ORLEANS LA PTSUNNY   84  74  71 NW3       29.94F HX  91
OKLAHOMA CITY  MOSUNNY   95  66  38 S16       29.85F HX  98
ALBUQUERQUE NM PTSUNNY   88  41  19 SW12G21   29.99F
SALT LAKE CITY CLOUDY    68  56  65 SE7       29.96F
LOS ANGELES CA PTSUNNY   75  62  64 SW12G17   29.88F
BOISE ID       MOSUNNY   89  42  19 SW5       29.75F
SEATTLE WA     MOSUNNY   79  59  50 VRB6      29.84S
$$

*** WEATHER ACROSS MANITOBA...SASKATCHEWAN AND ONTARIO ***
                ***ONTARIO***

CITY           SKY/WX    TMP DP  RH WIND       PRES   REMARKS
GERALDTON      CLOUDY    64  61  88 SE7       29.77S
THUNDER BAY    CLOUDY    61  57  88 NE7       29.76R
SIOUX LOOKOUT  MOSUNNY   73  57  56 VRB3      29.76S
TORONTO        MOSUNNY   72  54  53 E13       29.85F
BIG TROUT LK   SUNNY     79  50  36 S3        29.77R
PICKLE LAKE    MOSUNNY   75  52  43 VRB5      29.77S
DRYDEN         CLOUDY    66  61  82 VRB2      29.79S
KENORA         CLOUDY    72  61  68 CALM      29.79S
$$
                *** MANITOBA***

CITY           SKY/WX    TMP DP  RH WIND       PRES   REMARKS
BRANDON        CLOUDY    81  64  57 NE6       29.73F
DAUPHIN        SUNNY     82  64  54 SE6       29.70F
ISLAND LAKE    PTSUNNY   81  61  50 SW6       29.71F
PILOT MOUND      N/A     81  59  47 S2          N/A
THE PAS        PTSUNNY   82  57  42 S7        29.62S SMOKE
THOMPSON       MOSUNNY   79  64  61 S8        29.60S
WINNIPEG       PTSUNNY   79  61  53 SE5       29.74S
LYNN LAKE      CLOUDY    63  57  82 MISG      29.65R
CHURCHILL      CLOUDY    46  43  87 SE22G29   29.82R
GILLAM         PTSUNNY   63  55  77 SE10      29.69F
$$
                ***SASKATCHEWAN***

CITY           SKY/WX    TMP DP  RH WIND       PRES   REMARKS
ESTEVAN        PTSUNNY   84  57  39 S2        29.71F
KINDERSLEY     NOT AVBL
LLOYDMINSTER   CLOUDY    72  59  64 N8        29.67S
PRINCE ALBERT  CLOUDY    81  61  50 VRB2      29.62F
REGINA         SUNNY     86  61  42 S7        29.66F
YORKTON        SUNNY     81  55  41 S7        29.70F
N. BATTLEFORD  MOSUNNY   64  61  88 W3        29.69S
LA RONGE       CLOUDY    68  61  77 NW7       29.64S
SASKATOON      NOT AVBL
SWIFT CURRENT  MOSUNNY   88  52  29 W8G20     29.61F
$$
NOTE: THESE ARE AUTOMATED STATIONS WITH LIMITED QUALITY CONTROL
      "FAIR" INDICATES FEW OR NO CLOUDS BELOW 12,000 FEET WITH NO
      SIGNIFICANT WEATHER AND/OR OBSTRUCTIONS TO VISIBILITY.
      SKY/WX - SKY CONDITION AND SIGNIFICANT WEATHER.
      TMP - AIR TEMPERATURE.    DP   - DEWPOINT TEMPERATURE.
      RH  - RELATIVE HUMIDITY.  PRES - PRESSURE.
      HX  - HEAT INDEX.         WCI  - WIND CHILL INDEX.
$


USA.gov is the U.S. government's official web portal to all federal, state and local government web resources and services.